CW1855 Weather Reports


Display with metric or nautical units.
time (UTC)temp
F
wind
direction
speed
MPH
gust
MPH
rain 1hr
in
rain 24hr
in
rain mn
in
humidity
%
barometer
mb
20180721211205 84 41 5.0 0.0 0.00 0.00 0.00 14 1039.6
20180721210205 82 46 4.0 0.0 0.00 0.00 0.00 14 1039.6
20180721205704 83 54 4.0 0.0 0.00 0.00 0.00 14 1039.6
20180721205204 86 28 4.0 0.0 0.00 0.00 0.00 13 1040.6
20180721203705 80 40 6.0 0.0 0.00 0.00 0.00 15 1039.6
20180721202205 82 25 4.0 0.0 0.00 0.00 0.00 14 1040.6
20180721200204 74 20 6.0 0.0 0.00 0.00 0.00 16 1040.6
20180721195705 74 293 4.0 0.0 0.00 0.00 0.00 16 1040.6
20180721195204 74 27 4.0 0.0 0.00 0.00 0.00 16 1040.6
20180721194704 74 29 5.0 0.0 0.00 0.00 0.00 16 1040.6
20180721194206 74 37 4.0 0.0 0.00 0.00 0.00 16 1040.6
20180721193205 73 25 5.0 0.0 0.00 0.00 0.00 16 1040.6
20180721191704 75 72 4.0 0.0 0.00 0.00 0.00 16 1040.6
20180721185704 74 64 4.0 0.0 0.00 0.00 0.00 16 1040.6
20180721185205 73 37 4.0 0.0 0.00 0.00 0.00 16 1040.6
20180721184705 72 224 4.0 0.0 0.00 0.00 0.00 19 1040.6
20180721183204 71 101 4.0 0.0 0.00 0.00 0.00 17 1040.6
20180721182705 71 283 2.0 0.0 0.00 0.00 0.00 19 1040.6
20180721182204 70 268 4.0 0.0 0.00 0.00 0.00 19 1040.6
20180721181705 69 32 5.0 0.0 0.00 0.00 0.00 20 1040.6
20180721181204 69 12 5.0 0.0 0.00 0.00 0.00 20 1040.6
20180721174205 71 313 3.0 0.0 0.00 0.00 0.00 19 1040.6
20180721173705 73 17 4.0 0.0 0.00 0.00 0.00 16 1041.6
20180721173204 74 22 4.0 0.0 0.00 0.00 0.00 16 1041.6
20180721170705 78 115 2.0 0.0 0.00 0.00 0.00 15 1041.6
20180721170204 81 92 4.0 0.0 0.00 0.00 0.00 14 1041.6
20180721165705 80 24 4.0 0.0 0.00 0.00 0.00 15 1041.6
20180721165205 79 27 4.0 0.0 0.00 0.00 0.00 15 1040.6
20180721164704 83 69 4.0 0.0 0.00 0.00 0.00 14 1040.6
20180721164204 83 32 0.0 0.0 0.00 0.00 0.00 14 1040.6
20180721162204 81 28 3.0 0.0 0.00 0.00 0.00 14 1040.6
20180721161204 77 65 3.0 0.0 0.00 0.00 0.00 15 1040.6
20180721160205 79 33 4.0 0.0 0.00 0.00 0.00 15 1040.6
20180721155705 81 22 5.0 0.0 0.00 0.00 0.00 14 1040.6
20180721155204 80 19 4.0 0.0 0.00 0.00 0.00 17 1040.6
20180721154705 76 12 2.0 0.0 0.00 0.00 0.00 18 1040.6
20180721154205 77 9 6.0 0.0 0.00 0.00 0.00 18 1040.6
20180721153705 77 34 4.0 0.0 0.00 0.00 0.00 15 1040.6
20180721153204 76 41 3.0 0.0 0.00 0.00 0.00 18 1040.6
20180721152705 76 43 4.0 0.0 0.00 0.00 0.00 15 1040.6
20180721152205 78 21 3.0 0.0 0.00 0.00 0.00 18 1040.6
20180721151705 79 81 3.0 0.0 0.00 0.00 0.00 18 1040.6
20180721151205 77 106 2.0 0.0 0.00 0.00 0.00 18 1040.6
20180721150705 75 101 3.0 0.0 0.00 0.00 0.00 18 1040.6
20180721150205 73 125 2.0 0.0 0.00 0.00 0.00 22 1040.6
20180721145705 75 115 0.0 0.0 0.00 0.00 0.00 21 1040.6
20180721144706 69 168 0.0 0.0 0.00 0.00 0.00 41 1040.6
20180721143705 67 106 0.0 0.0 0.00 0.00 0.00 45 1040.6
20180721143205 65 98 0.0 0.0 0.00 0.00 0.00 48 1040.6
20180721142705 62 98 0.0 0.0 0.00 0.00 0.00 53 1040.6
20180721142205 56 98 0.0 0.0 0.00 0.00 0.00 61 1040.6
20180721141706 51 96 0.0 0.0 0.00 0.00 0.00 76 1040.6
20180721141205 50 96 0.0 0.0 0.00 0.00 0.00 77 1040.6
20180721140705 49 96 0.0 0.0 0.00 0.00 0.00 77 1039.6
20180721140204 48 96 0.0 0.0 0.00 0.00 0.00 77 1039.6
20180721134704 47 96 0.0 0.0 0.00 0.00 0.00 77 1040.6
20180721134205 47 96 0.0 0.0 0.00 0.00 0.00 74 1040.6
20180721133706 46 96 0.0 0.0 0.00 0.00 0.00 74 1040.6
20180721132205 45 96 0.0 0.0 0.00 0.00 0.00 73 1040.6
20180721131204 44 96 0.0 0.0 0.00 0.00 0.00 63 1040.6
20180721125706 44 95 0.0 0.0 0.00 0.00 0.00 63 1040.6
20180721124705 43 95 0.0 0.0 0.00 0.00 0.00 60 1040.6
20180721123705 44 95 0.0 0.0 0.00 0.00 0.00 60 1040.6
20180721122705 44 95 0.0 0.0 0.00 0.00 0.00 64 1040.6
20180721122205 44 95 0.0 0.0 0.00 0.00 0.00 64 1039.6
20180721121205 45 95 0.0 0.0 0.00 0.00 0.00 68 1039.6
20180721115205 46 95 0.0 0.0 0.00 0.00 0.00 64 1039.6
20180721114206 46 95 0.0 0.0 0.00 0.00 0.00 57 1039.6
20180721113705 45 95 0.0 0.0 0.00 0.00 0.00 54 1039.6
20180721112205 46 95 0.0 0.0 0.00 0.00 0.00 57 1039.6
20180721110705 47 19 0.0 0.0 0.00 0.00 0.00 57 1039.6
20180721104705 48 17 0.0 0.0 0.00 0.00 0.00 57 1039.6
20180721104205 47 17 0.0 0.0 0.00 0.00 0.00 51 1039.6
20180721102705 47 17 0.0 0.0 0.00 0.00 0.00 48 1038.6
20180721102205 47 17 0.0 0.0 0.00 0.00 0.00 48 1039.6
20180721095705 47 16 0.0 0.0 0.00 0.00 0.00 48 1039.6
20180721095204 47 16 0.0 0.0 0.00 0.00 0.00 47 1038.6
20180721094705 47 16 0.0 0.0 0.00 0.00 0.00 46 1038.6
20180721093705 47 16 0.0 0.0 0.00 0.00 0.00 45 1038.6
20180721093205 47 16 0.0 0.0 0.00 0.00 0.00 45 1038.6
20180721092705 48 16 0.0 0.0 0.00 0.00 0.00 45 1038.6
20180721092205 48 16 0.0 0.0 0.00 0.00 0.00 46 1039.6
20180721091706 48 16 0.0 0.0 0.00 0.00 0.00 46 1039.6
20180721090705 49 16 0.0 0.0 0.00 0.00 0.00 42 1039.6
20180721090205 49 16 0.0 0.0 0.00 0.00 0.00 41 1039.6
20180721085705 49 16 0.0 0.0 0.00 0.00 0.00 41 1039.6
20180721083705 50 16 0.0 0.0 0.00 0.00 0.00 41 1039.6
20180721083205 50 16 0.0 0.0 0.00 0.00 0.00 40 1039.6
20180721082205 50 16 0.0 0.0 0.00 0.00 0.00 39 1038.6
20180721081705 51 16 0.0 0.0 0.00 0.00 0.00 39 1038.6
20180721080705 52 16 0.0 0.0 0.00 0.00 0.00 38 1039.6
20180721075205 52 16 0.0 0.0 0.00 0.00 0.00 37 1039.6
20180721074705 53 16 0.0 0.0 0.00 0.00 0.00 36 1039.6
20180721074206 53 16 0.0 0.0 0.00 0.00 0.00 34 1039.6
20180721073707 54 16 0.0 4.0 0.00 0.00 0.00 33 1038.6
20180721073204 56 16 0.0 4.0 0.00 0.00 0.00 32 1038.6
20180721072205 58 16 3.0 4.0 0.00 0.00 0.00 33 1038.6
20180721070205 59 12 3.0 0.0 0.00 0.00 0.00 30 1039.6
20180721065704 59 14 4.0 0.0 0.00 0.00 0.00 30 1039.6
20180721064705 59 17 4.0 0.0 0.00 0.00 0.00 31 1038.6
20180721064205 59 22 3.0 0.0 0.00 0.00 0.00 33 1038.6
20180721063705 58 11 0.0 0.0 0.00 0.00 0.00 35 1038.6
20180721063205 57 11 0.0 0.0 0.00 0.00 0.00 36 1038.6
20180721061706 58 11 0.0 0.0 0.00 0.00 0.00 29 1039.6
20180721060204 60 11 0.0 0.0 0.00 0.00 0.00 28 1038.6
20180721055205 62 11 0.0 0.0 0.00 0.00 0.00 26 1038.6
20180721054705 62 8 4.0 0.0 0.00 0.00 0.00 26 1038.6
20180721054205 63 10 5.0 0.0 0.00 0.00 0.00 25 1038.6
20180721053705 63 34 5.0 0.0 0.00 0.00 0.00 25 1038.6
20180721050204 65 16 7.0 0.0 0.00 0.00 0.00 23 1038.6
20180721043705 66 27 4.0 0.0 0.00 0.00 0.00 23 1037.5
20180721042705 66 28 4.0 0.0 0.00 0.00 0.00 22 1037.5
20180721042205 67 12 3.0 0.0 0.00 0.00 0.00 22 1037.5
20180721041205 68 19 4.0 0.0 0.00 0.00 0.00 20 1037.5
20180721040704 69 20 4.0 0.0 0.00 0.00 0.00 20 1037.5
20180721035705 69 29 4.0 0.0 0.00 0.00 0.00 17 1037.5
20180721035205 69 24 4.0 0.0 0.00 0.00 0.00 17 1037.5
20180721034704 69 24 4.0 0.0 0.00 0.00 0.00 17 1037.5
20180721033705 70 26 5.0 0.0 0.00 0.00 0.00 17 1037.5
20180721032704 70 37 4.0 0.0 0.00 0.00 0.00 17 1037.5
20180721025705 72 3 7.0 0.0 0.00 0.00 0.00 16 1037.5
20180721025205 73 40 5.0 0.0 0.00 0.00 0.00 16 1037.5
20180721024705 73 37 7.0 0.0 0.00 0.00 0.00 16 1037.5
20180721023704 73 50 6.0 0.0 0.00 0.00 0.00 16 1037.5
20180721023205 74 26 6.0 0.0 0.00 0.00 0.00 16 1037.5
20180721022712 75 33 5.0 0.0 0.00 0.00 0.00 16 1037.5
20180721022204 74 18 6.0 0.0 0.00 0.00 0.00 16 1037.5
20180721021204 74 25 6.0 0.0 0.00 0.00 0.00 16 1037.5
20180721020705 74 27 6.0 0.0 0.00 0.00 0.00 16 1037.5
20180721020205 74 29 4.0 0.0 0.00 0.00 0.00 16 1037.5
20180721015704 74 34 5.0 0.0 0.00 0.00 0.00 16 1037.5
20180721014205 75 46 7.0 0.0 0.00 0.00 0.00 16 1037.5
20180721013704 75 12 8.0 0.0 0.00 0.00 0.00 16 1037.5
20180721013204 76 13 5.0 0.0 0.00 0.00 0.00 15 1037.5
20180721012705 78 41 7.0 0.0 0.00 0.00 0.00 15 1037.5
20180721011705 78 54 6.0 0.0 0.00 0.00 0.00 15 1037.5
20180721011204 80 49 5.0 0.0 0.00 0.00 0.00 15 1037.5
20180721010206 81 45 8.0 0.0 0.00 0.00 0.00 14 1037.5
20180721005705 82 4 4.0 0.0 0.00 0.00 0.00 14 1037.5
20180721005205 80 31 5.0 0.0 0.00 0.00 0.00 15 1037.5
20180721004704 79 48 5.0 0.0 0.00 0.00 0.00 15 1037.5
20180721002704 80 19 8.0 0.0 0.00 0.00 0.00 15 1038.6
20180721002205 78 38 9.0 0.0 0.00 0.00 0.00 15 1037.5
20180721001704 80 57 6.0 0.0 0.00 0.00 0.00 15 1037.5
20180721001205 82 29 7.0 0.0 0.00 0.00 0.00 14 1037.5
20180721000705 80 36 10.0 0.0 0.00 0.00 0.00 15 1038.6
20180721000205 81 82 5.0 0.0 0.00 0.00 0.00 14 1038.6
20180720235704 81 30 7.0 0.0 0.00 0.00 0.00 14 1038.6
20180720235204 82 42 8.0 0.0 0.00 0.00 0.00 14 1038.6
20180720234705 84 11 7.0 0.0 0.00 0.00 0.00 14 1038.6
20180720234205 82 29 4.0 0.0 0.00 0.00 0.00 14 1038.6
20180720233705 79 20 7.0 0.0 0.00 0.00 0.00 15 1038.6
20180720233204 79 32 8.0 0.0 0.00 0.00 0.00 15 1038.6
20180720232705 79 36 8.0 0.0 0.00 0.00 0.00 15 1038.6
20180720231705 79 48 7.0 0.0 0.00 0.00 0.00 15 1038.6
20180720230205 81 23 5.0 0.0 0.00 0.00 0.00 14 1039.6
20180720225204 79 57 8.0 0.0 0.00 0.00 0.00 15 1039.6
20180720224706 82 25 8.0 0.0 0.00 0.00 0.00 14 1039.6
20180720223705 79 48 8.0 0.0 0.00 0.00 0.00 15 1039.6
20180720223205 79 47 8.0 0.0 0.00 0.00 0.00 15 1039.6
20180720220704 80 19 8.0 0.0 0.00 0.00 0.00 15 1039.6
20180720220204 79 39 4.0 0.0 0.00 0.00 0.00 15 1039.6
20180720215704 79 83 6.0 0.0 0.00 0.00 0.00 15 1039.6
20180720214705 80 24 5.0 0.0 0.00 0.00 0.00 15 1039.6
20180720212705 81 30 6.0 0.0 0.00 0.00 0.00 14 1040.6
20180720212205 78 39 6.0 0.0 0.00 0.00 0.00 15 1040.6
20180720211705 79 22 9.0 0.0 0.00 0.00 0.00 15 1040.6